Location: Reutlingen
(48.4911°N, 9.2587°E)
Time: 08:50:13
(UTC+02:00)

ISS - Visible Passes

Search period start: 28 May 2017 00:00
Search period end: 07 June 2017 00:00
Orbit: 402 x 408 km, 51.6° (Epoch: 28 May)

Date Brightness Start Highest point End Pass type
(mag) Time Alt. Az. Time Alt. Az. Time Alt. Az.
28 May -2.7 00:06:21 10° WNW 00:09:33 46° N 00:12:45 10° ENE visible
28 May -3.7 01:43:01 10° WNW 01:46:19 74° NNE 01:47:25 38° E visible
28 May -1.3 03:19:46 10° W 03:19:57 11° W 03:19:57 11° W visible
28 May -2.9 23:14:11 10° W 23:17:24 50° N 23:20:39 10° ENE visible
29 May -3.2 00:50:57 10° WNW 00:54:13 57° NNE 00:56:01 23° E visible
29 May -1.8 02:27:33 10° WNW 02:28:37 18° W 02:28:37 18° W visible
29 May -3.2 22:22:00 10° W 22:25:17 59° NNW 22:28:34 10° ENE visible
29 May -2.9 23:58:51 10° WNW 00:02:05 49° N 00:05:09 11° E visible
30 May -3.1 01:35:25 10° WNW 01:37:46 42° W 01:37:46 42° W visible
30 May -2.7 23:06:43 10° WNW 23:09:55 46° N 23:13:07 10° ENE visible
31 May -3.9 00:43:20 10° WNW 00:46:39 83° NNE 00:47:05 64° E visible
31 May -2.8 22:14:32 10° W 22:17:44 48° N 22:20:58 10° ENE visible
31 May -3.4 23:51:15 10° WNW 23:54:32 62° NNE 23:56:29 22° E visible
01 Jun -1.8 01:27:52 10° WNW 01:29:07 20° W 01:29:07 20° W visible
01 Jun -3.0 22:59:08 10° WNW 23:02:22 51° N 23:05:36 10° E visible
02 Jun -3.6 00:35:41 10° WNW 00:38:36 53° WSW 00:38:36 53° WSW visible
02 Jun -2.8 22:06:58 10° WNW 22:10:10 46° N 22:13:23 10° ENE visible
02 Jun -3.9 23:43:33 10° WNW 23:46:51 87° SSW 23:48:06 36° ESE visible
03 Jun -1.1 01:20:36 10° W 01:20:44 11° W 01:20:44 11° W visible
03 Jun -3.6 22:51:26 10° WNW 22:54:43 69° NNE 22:57:39 13° E visible
04 Jun -2.4 00:28:07 10° W 00:30:17 27° WSW 00:30:17 27° WSW visible
04 Jun -3.1 21:59:17 10° WNW 22:02:32 54° N 22:05:47 10° E visible
04 Jun -3.5 23:35:50 10° WNW 23:39:03 48° SSW 23:39:51 38° SSE visible
05 Jun -3.9 22:43:39 10° WNW 22:46:57 76° SSW 22:49:26 16° ESE visible
06 Jun -1.5 00:20:56 10° W 00:22:05 14° WSW 00:22:05 14° WSW visible
06 Jun -2.5 23:28:16 10° W 23:31:04 25° SW 23:31:42 24° SSW visible
